| time (UTC) | temp F | wind direction | speed MPH | gust MPH | rain 1hr in | rain 24hr in | rain mn in | humidity % | barometer mb |
| 20260503211524 | 50 | 173 | 0.0 | 0.0 | 0.00 | 0.00 | 0.00 | 65 | 1019.8 |
| 20260503210021 | 50 | 173 | 0.0 | 0.0 | 0.00 | 0.00 | 0.00 | 63 | 1019.9 |
| 20260503204519 | 51 | 173 | 0.0 | 0.0 | 0.00 | 0.00 | 0.00 | 61 | 1019.8 |
| 20260503203023 | 51 | 173 | 0.0 | 0.0 | 0.00 | 0.00 | 0.00 | 58 | 1019.9 |
| 20260503201523 | 52 | 173 | 0.0 | 0.0 | 0.00 | 0.00 | 0.00 | 56 | 1020.0 |
| 20260503200018 | 52 | 173 | 0.0 | 0.0 | 0.00 | 0.00 | 0.00 | 56 | 1020.0 |
| 20260503194522 | 52 | 173 | 0.0 | 1.0 | 0.00 | 0.00 | 0.00 | 55 | 1020.0 |
| 20260503193018 | 53 | 173 | 0.0 | 0.0 | 0.00 | 0.00 | 0.00 | 54 | 1020.0 |
| 20260503191516 | 53 | 173 | 0.0 | 1.0 | 0.00 | 0.00 | 0.00 | 54 | 1019.9 |
| 20260503190015 | 53 | 180 | 0.0 | 1.0 | 0.00 | 0.00 | 0.00 | 54 | 1019.9 |
| 20260503184514 | 54 | 179 | 0.0 | 2.0 | 0.00 | 0.00 | 0.00 | 54 | 1019.9 |
| 20260503183013 | 54 | 176 | 0.0 | 0.0 | 0.00 | 0.00 | 0.00 | 53 | 1019.9 |
| 20260503181513 | 55 | 186 | 0.0 | 0.0 | 0.00 | 0.00 | 0.00 | 51 | 1019.8 |
| 20260503180024 | 55 | 355 | 0.0 | 1.0 | 0.00 | 0.00 | 0.00 | 49 | 1019.8 |
| 20260503174519 | 56 | 159 | 0.0 | 1.0 | 0.00 | 0.00 | 0.00 | 48 | 1019.7 |
| 20260503173013 | 57 | 169 | 0.0 | 2.0 | 0.00 | 0.00 | 0.00 | 47 | 1019.7 |
| 20260503171517 | 57 | 182 | 0.0 | 3.0 | 0.00 | 0.00 | 0.00 | 45 | 1019.6 |
| 20260503081511 | 58 | 31 | 0.0 | 0.0 | 0.00 | 0.00 | 0.00 | 42 | 1023.5 |
| 20260503071502 | 58 | 15 | 0.0 | 0.0 | 0.00 | 0.00 | 0.00 | 52 | 1023.5 |
| 20260503070113 | 57 | 15 | 0.0 | 0.0 | 0.00 | 0.00 | 0.00 | 54 | 1023.5 |
| 20260503054552 | 47 | 15 | 0.0 | 0.0 | 0.00 | 0.00 | 0.00 | 87 | 1023.3 |
| 20260503053036 | 45 | 15 | 0.0 | 0.0 | 0.00 | 0.00 | 0.00 | 88 | 1023.2 |
| 20260503051545 | 44 | 15 | 0.0 | 0.0 | 0.00 | 0.00 | 0.00 | 89 | 1023.1 |
| 20260503050034 | 44 | 15 | 0.0 | 1.0 | 0.00 | 0.00 | 0.00 | 89 | 1023.0 |
| 20260503044534 | 43 | 15 | 0.0 | 0.0 | 0.00 | 0.00 | 0.00 | 89 | 1022.9 |
| 20260503043032 | 43 | 15 | 0.0 | 0.0 | 0.00 | 0.00 | 0.00 | 89 | 1022.9 |
| 20260503041533 | 43 | 15 | 0.0 | 1.0 | 0.00 | 0.00 | 0.00 | 89 | 1022.9 |
| 20260503040031 | 42 | 15 | 0.0 | 0.0 | 0.00 | 0.00 | 0.00 | 89 | 1022.8 |
| 20260503034529 | 42 | 15 | 0.0 | 0.0 | 0.00 | 0.00 | 0.00 | 89 | 1022.7 |
| 20260503033027 | 43 | 15 | 0.0 | 0.0 | 0.00 | 0.00 | 0.00 | 89 | 1022.6 |
| 20260503031531 | 43 | 15 | 0.0 | 0.0 | 0.00 | 0.00 | 0.00 | 88 | 1022.6 |
| 20260503030030 | 43 | 15 | 0.0 | 0.0 | 0.00 | 0.00 | 0.00 | 88 | 1022.6 |
| 20260503024525 | 43 | 15 | 0.0 | 0.0 | 0.00 | 0.00 | 0.00 | 87 | 1022.5 |
| 20260503023022 | 44 | 15 | 0.0 | 0.0 | 0.00 | 0.00 | 0.00 | 87 | 1022.5 |
| 20260503021520 | 44 | 15 | 0.0 | 1.0 | 0.00 | 0.00 | 0.00 | 86 | 1022.5 |
| 20260503020019 | 44 | 15 | 0.0 | 0.0 | 0.00 | 0.00 | 0.00 | 86 | 1022.5 |
| 20260503014517 | 45 | 15 | 0.0 | 1.0 | 0.00 | 0.00 | 0.00 | 85 | 1022.4 |
| 20260503013028 | 45 | 15 | 0.0 | 0.0 | 0.00 | 0.00 | 0.00 | 84 | 1022.4 |
| 20260503011514 | 46 | 15 | 0.0 | 0.0 | 0.00 | 0.00 | 0.00 | 81 | 1022.5 |
| 20260503010012 | 46 | 15 | 0.0 | 0.0 | 0.00 | 0.00 | 0.00 | 79 | 1022.4 |
| 20260503004509 | 47 | 15 | 0.0 | 0.0 | 0.00 | 0.00 | 0.00 | 79 | 1022.5 |
| 20260503003009 | 47 | 15 | 0.0 | 0.0 | 0.00 | 0.00 | 0.00 | 78 | 1022.5 |
| 20260503001508 | 47 | 15 | 0.0 | 0.0 | 0.00 | 0.00 | 0.00 | 77 | 1022.6 |
| 20260503000006 | 47 | 15 | 0.0 | 0.0 | 0.00 | 0.00 | 0.00 | 78 | 1022.7 |
| 20260502234504 | 47 | 15 | 0.0 | 0.0 | 0.00 | 0.00 | 0.00 | 78 | 1022.7 |
| 20260502233002 | 48 | 15 | 0.0 | 0.0 | 0.00 | 0.00 | 0.00 | 81 | 1022.8 |
| 20260502231501 | 48 | 15 | 0.0 | 0.0 | 0.00 | 0.00 | 0.00 | 79 | 1023.2 |
| 20260502224559 | 48 | 15 | 0.0 | 0.0 | 0.00 | 0.00 | 0.00 | 76 | 1023.2 |
| 20260502223107 | 48 | 15 | 0.0 | 0.0 | 0.00 | 0.00 | 0.00 | 76 | 1023.3 |
| 20260502221559 | 48 | 15 | 0.0 | 0.0 | 0.00 | 0.00 | 0.00 | 74 | 1023.3 |
| 20260502214556 | 48 | 15 | 0.0 | 0.0 | 0.00 | 0.00 | 0.00 | 76 | 1023.1 |
| 20260502213055 | 48 | 15 | 0.0 | 0.0 | 0.00 | 0.00 | 0.00 | 77 | 1023.3 |